15min,AgWx,beryljct,423,09MAR2020:00:00:00,29.1,12.86,25.9,25.8,27.6,29.3,25.7,76,79,73,0.373,21.0,23.0,19.6,0.636,1.9,143,11,3.5,-0.00010,-0.00013,42.6,42.7,20,0,.,.,9.38,0.00,0.00
15min,AgWx,beryljct,423,09MAR2020:00:15:00,28.6,12.85,29.7,28.9,26.7,28.9,25.6,80,81,78,0.420,21.3,22.9,20.0,0,0.8,114,15,3.4,-0.00016,-0.00023,42.4,42.7,20,0,.,.,9.38,0.00,0.00
15min,AgWx,beryljct,423,09MAR2020:00:30:00,28.5,12.83,27.1,27.3,28.9,30.5,26.9,76,78,72,0.391,22.2,23.6,20.0,2.346,0.7,125,9.1,2.8,-0.00018,-0.00025,42.2,42.6,21,0,.,.,9.38,0.00,0.00
15min,AgWx,beryljct,423,09MAR2020:00:45:00,28.3,12.83,35.1,32.9,28.8,32.9,27.2,77,80,75,0.476,22.6,25.9,21.2,4.604,0.5,184,34,4.6,-0.00019,-0.00028,42.0,42.6,20,0,.,.,9.38,0.00,0.00
15min,AgWx,beryljct,423,09MAR2020:01:00:00,30.1,12.82,36.3,37.5,38.2,40.0,33.2,62,75,58,0.473,26.4,27.9,25.3,5.48,5.9,250,10,7.5,0.00009,0.00012,41.8,42.6,21,0,.,.,9.38,0.00,0.00
15min,AgWx,beryljct,423,09MAR2020:01:15:00,31.9,12.82,32.5,32.1,36.8,39.5,32.1,62,67,59,0.404,25.0,26.9,22.0,4.428,4.5,259,84,7.5,0.00004,0.00007,41.7,42.6,20,0,.,.,9.38,0.00,0.00
15min,AgWx,beryljct,423,09MAR2020:01:30:00,32.4,12.82,31.9,33.3,33.7,37.6,31.2,67,72,59,0.438,23.8,26.3,22.0,3.288,3.3,12,55,4.8,-0.00003,-0.00002,41.5,42.5,21,0,.,.,9.38,0.00,0.00
15min,AgWx,beryljct,423,09MAR2020:01:45:00,32.5,12.81,31.3,30.4,33.3,38.3,29.5,67,74,58,0.420,23.4,26.6,20.4,5.042,4.4,71,90,8.2,0.00001,0.00003,41.4,42.4,20,0,.,.,9.38,0.00,0.00
15min,AgWx,beryljct,423,09MAR2020:02:00:00,31.8,12.79,36.7,35.3,30.7,35.3,28.3,73,77,66,0.464,23.2,25.9,21.1,10.33,3.5,34,82,10.5,-0.00004,-0.00004,41.2,42.4,21,0,.,.,9.38,0.00,0.00
15min,AgWx,beryljct,423,09MAR2020:02:15:00,32.2,12.78,36.3,35.0,36.2,38.6,34.1,63,67,58,0.448,24.6,25.7,23.3,0.46,3.1,343,47,9.2,-0.00002,-0.00001,41.1,42.4,21,0,.,.,9.38,0.00,0.00
15min,AgWx,beryljct,423,09MAR2020:02:30:00,32.9,12.79,35.4,37.3,36.4,37.3,35.1,62,65,60,0.451,24.5,25.1,23.5,1.118,4.1,329,46,6.6,0.00002,0.00005,41.0,42.3,20,0,.,.,9.38,0.00,0.00
15min,AgWx,beryljct,423,09MAR2020:02:45:00,33.2,12.77,37.2,36.6,36.1,38.1,34.9,62,65,59,0.448,24.4,25.9,23.2,3.376,1.5,333,78,5.1,-0.00012,-0.00016,40.9,42.3,20,0,.,.,9.38,0.00,0.00
15min,AgWx,beryljct,423,09MAR2020:03:00:00,33.4,12.77,36.9,36.0,36.0,37.6,34.2,62,65,59,0.440,24.0,25.0,22.6,4.341,4.1,14,11,6.2,0.00002,0.00005,40.8,42.2,20,0,.,.,9.38,0.00,0.00
15min,AgWx,beryljct,423,09MAR2020:03:15:00,33.4,12.77,34.0,33.7,33.9,36.1,32.6,65,68,61,0.438,23.3,24.1,21.9,6.752,3.2,324,28,6.8,-0.00003,-0.00002,40.6,42.2,21,0,.,.,9.38,0.00,0.00
15min,AgWx,beryljct,423,09MAR2020:03:30:00,32.9,12.76,32.5,32.5,32.4,33.7,31.1,69,72,66,0.428,23.3,24.2,22.5,1.776,2.6,313,37,7.0,-0.00006,-0.00007,40.5,42.1,20,0,.,.,9.38,0.00,0.00
15min,AgWx,beryljct,423,09MAR2020:03:45:00,32.5,12.75,32.2,32.7,32.7,33.4,32.3,68,70,67,0.429,23.5,24.0,23.0,3.836,3.5,345,17,5.9,-0.00003,-0.00002,40.4,42.0,20,0,.,.,9.38,0.00,0.00
15min,AgWx,beryljct,423,09MAR2020:04:00:00,32.2,12.75,29.2,31.6,32.1,32.8,30.6,70,73,68,0.419,23.4,24.1,21.6,3.266,3.8,327,47,5.5,-0.00002,-0.00001,40.3,42.0,20,0,.,.,9.38,0.00,0.00
15min,AgWx,beryljct,423,09MAR2020:04:15:00,31.9,12.74,35.3,33.1,31.8,33.1,30.8,71,73,68,0.458,23.6,25.0,22.2,4.319,2.4,310,57,5.9,-0.00008,-0.00009,40.2,42.0,21,0,.,.,9.38,0.00,0.00
15min,AgWx,beryljct,423,09MAR2020:04:30:00,32.0,12.74,34.6,34.7,34.5,35.9,33.1,66,71,63,0.444,24.3,25.2,23.5,3.025,2.7,346,61,5.3,-0.00006,-0.00005,40.1,41.9,20,0,.,.,9.38,0.00,0.00
15min,AgWx,beryljct,423,09MAR2020:04:45:00,32.3,12.74,33.2,32.6,33.4,34.7,32.2,68,70,65,0.441,24.0,25.0,23.2,3.047,2.4,353,24,4.2,-0.00007,-0.00008,40.0,41.9,20,0,.,.,9.38,0.00,0.00
15min,AgWx,beryljct,423,09MAR2020:05:00:00,32.3,12.72,36.8,34.3,33.1,34.3,32.1,69,71,66,0.451,24.0,24.6,23.4,2.477,2.0,346,64,6.2,-0.00010,-0.00011,39.9,41.8,20,0,.,.,9.38,0.00,0.00
15min,AgWx,beryljct,423,09MAR2020:05:15:00,32.8,12.73,37.6,35.3,35.4,37.9,33.4,63,67,58,0.447,24.1,25.5,22.5,5.02,2.9,339,76,7.3,-0.00004,-0.00003,39.9,41.7,21,0,.,.,9.38,0.00,0.00
15min,AgWx,beryljct,423,09MAR2020:05:30:00,33.3,12.72,34.7,34.6,35.0,37.5,33.3,64,67,59,0.455,23.9,25.1,23.0,3.771,3.5,340,43,6.6,-0.00001,0.00001,39.8,41.7,20,0,.,.,9.38,0.00,0.00
15min,AgWx,beryljct,423,09MAR2020:05:45:00,33.2,12.72,31.1,32.2,33.4,35.8,31.6,68,73,63,0.433,23.8,25.4,22.9,3.091,3.1,331,63,5.1,-0.00004,-0.00003,39.7,41.6,21,0,.,.,9.39,0.01,0.00
15min,AgWx,beryljct,423,09MAR2020:06:00:00,32.9,12.72,31.8,33.2,32.9,33.9,31.8,70,72,68,0.433,24.1,24.9,23.4,4.406,4.5,318,19,6.4,-0.00000,0.00001,39.6,41.6,20,0,.,.,9.38,0.00,0.00
15min,AgWx,beryljct,423,09MAR2020:06:15:00,32.7,12.71,33.9,33.1,32.4,33.1,31.9,72,74,68,0.465,24.3,25.3,23.4,3.332,3.9,290,14,5.9,0.00018,0.00030,39.5,41.5,20,0,.,.,9.38,0.00,0.00
15min,AgWx,beryljct,423,09MAR2020:06:30:00,32.5,12.71,32.9,32.5,33.8,34.7,32.5,68,72,66,0.426,24.5,25.5,23.0,3.244,2.1,307,62,4.1,0.00012,0.00021,39.5,41.5,21,0,.,.,9.38,0.00,0.00
15min,AgWx,beryljct,423,09MAR2020:06:45:00,32.1,12.7,29.6,31.0,32.4,33.3,31.0,71,73,69,0.425,23.9,24.7,23.2,3.508,2.9,346,11,3.8,0.00014,0.00025,39.4,41.4,20,0,.,.,9.38,0.00,0.00
15min,AgWx,beryljct,423,09MAR2020:07:00:00,31.4,12.71,29.2,28.6,29.5,30.9,28.6,76,78,72,0.412,22.8,23.4,22.3,2.828,2.6,348,4.5,4.3,0.00012,0.00019,39.3,41.4,20,4,.,.,9.38,0.00,0.00
15min,AgWx,beryljct,423,09MAR2020:07:15:00,30.6,12.73,33.3,32.3,30.2,32.3,28.6,76,79,72,0.445,23.6,24.4,22.5,2.126,2.9,351,8.8,3.6,0.00018,0.00027,39.3,41.3,20,20,.,.,9.39,0.00,0.00
15min,AgWx,beryljct,423,09MAR2020:07:30:00,30.5,12.77,30.0,29.8,31.2,32.5,29.8,73,76,70,0.426,23.5,24.3,22.5,4.253,4.6,358,9.4,7.4,0.00030,0.00044,39.2,41.3,21,32,.,.,9.38,0.00,0.00
15min,AgWx,beryljct,423,09MAR2020:07:45:00,30.6,12.96,30.4,30.1,29.9,30.5,29.1,77,79,75,0.438,23.6,24.3,22.7,3.946,3.7,339,16,4.9,0.00045,0.00056,39.1,41.3,20,104,.,.,9.38,0.00,0.00
15min,AgWx,beryljct,423,09MAR2020:08:00:00,31.8,13.23,34.0,33.2,31.5,33.2,30.1,77,78,75,0.478,25.2,26.0,24.0,3.639,4.1,330,10,5.2,0.00063,0.00077,39.1,41.2,21,167,.,.,9.38,0.00,0.00
15min,AgWx,beryljct,423,09MAR2020:08:15:00,33.8,13.66,38.3,37.7,35.3,37.7,33.3,71,74,63,0.479,26.7,27.8,25.7,3.99,3.8,321,7.1,6.0,0.00081,0.00099,39.0,41.1,21,186,.,.,9.38,0.00,0.00
15min,AgWx,beryljct,423,09MAR2020:08:30:00,36.4,14.27,38.3,37.7,37.7,38.1,37.0,63,65,61,0.488,26.3,27.3,25.6,2.916,4.0,23,18,5.8,0.00117,0.00142,38.9,41.1,20,268,.,.,9.38,0.00,0.00
15min,AgWx,beryljct,423,09MAR2020:08:45:00,38.5,14.63,38.2,38.0,37.9,38.4,37.5,63,64,62,0.481,26.5,27.2,26.1,3.025,2.6,54,11,4.4,0.00112,0.00131,38.8,41.1,21,249,.,.,9.38,0.00,0.00
15min,AgWx,beryljct,423,09MAR2020:09:00:00,40.2,14.59,40.1,39.6,38.7,39.6,37.9,60,62,57,0.473,25.9,26.4,25.4,3.814,3.5,25,14,5.6,0.00139,0.00166,38.8,41.0,21,308,.,.,9.37,0.00,0.00
15min,AgWx,beryljct,423,09MAR2020:09:15:00,42.2,14.56,43.5,42.3,41.0,42.3,39.6,54,57,52,0.473,25.9,26.5,25.4,0,2.0,23,16,4.0,0.00168,0.00192,38.8,41.0,21,367,.,.,9.37,0.00,0.00
15min,AgWx,beryljct,423,09MAR2020:09:30:00,44.5,14.57,44.2,43.5,42.8,43.5,42.1,51,52,50,0.489,26.1,26.9,25.5,0.219,1.2,96,14,3.2,0.00177,0.00197,38.8,40.9,21,373,.,.,9.37,0.00,0.00
15min,AgWx,beryljct,423,09MAR2020:09:45:00,46.9,14.49,45.6,45.6,44.5,45.6,43.5,50,51,49,0.510,26.8,27.6,26.3,3.661,2.1,112,22,5.0,0.00230,0.00260,38.9,40.9,20,478,.,.,9.37,0.00,0.00
15min,AgWx,beryljct,423,09MAR2020:10:00:00,49.3,14.45,46.8,46.7,45.9,47.0,45.3,47,49,45,0.493,26.8,27.4,26.2,5.02,2.5,186,46,6.1,0.00254,0.00290,38.9,40.8,20,516,.,.,9.36,0.00,0.00
15min,AgWx,beryljct,423,09MAR2020:10:15:00,50.9,14.43,49.3,49.3,48.8,49.8,46.7,41,46,39,0.470,26.2,28.0,25.1,12.3,11.2,203,13,15.0,0.00317,0.00416,39.0,40.8,20,585,.,.,9.37,0.00,0.00
15min,AgWx,beryljct,423,09MAR2020:10:30:00,51.9,14.39,50.4,49.8,49.1,49.8,48.4,39,40,39,0.489,25.4,26.5,24.7,13,13.2,188,16,18.8,0.00339,0.00451,39.2,40.8,21,618,.,.,9.37,0.00,0.00
15min,AgWx,beryljct,423,09MAR2020:10:45:00,52.5,14.39,49.8,49.8,49.6,50.5,48.8,39,40,38,0.476,25.7,26.7,25.0,12.71,13.3,180,13,18.8,0.00356,0.00472,39.4,40.7,21,657,.,.,9.36,0.00,0.00
15min,AgWx,beryljct,423,09MAR2020:11:00:00,53.1,14.02,49.5,50.0,49.9,50.7,49.0,39,40,38,0.491,25.8,26.7,25.2,15.13,13.2,172,12,17.7,0.00354,0.00469,39.6,40.7,21,636,.,.,9.36,0.00,0.00
15min,AgWx,beryljct,423,09MAR2020:11:15:00,52.7,14.01,50.8,49.8,49.2,49.9,48.6,40,40,39,0.475,25.8,26.6,25.1,12.41,11.9,185,18,17.2,0.00253,0.00354,39.8,40.7,21,350,.,.,9.36,0.00,0.00
15min,AgWx,beryljct,423,09MAR2020:11:30:00,52.6,13.97,51.6,50.8,50.1,50.8,49.5,38,39,37,0.471,25.3,26.2,24.4,9.76,14.1,216,13,22.0,0.00357,0.00479,40.0,40.6,21,629,.,.,9.36,0.00,0.00
15min,AgWx,beryljct,423,09MAR2020:11:45:00,53.4,13.95,49.2,50.3,50.9,51.8,49.8,37,39,36,0.478,25.7,26.7,25.0,13.31,11.4,213,18,18.9,0.00380,0.00493,40.2,40.6,21,687,.,.,9.35,0.00,0.00
15min,AgWx,beryljct,423,09MAR2020:12:00:00,54.0,13.96,52.8,51.5,51.3,52.5,50.2,37,38,35,0.468,25.6,26.3,24.8,11.16,13.5,212,15,19.6,0.00391,0.00516,40.4,40.6,21,702,.,.,9.35,0.00,0.00
15min,AgWx,beryljct,423,09MAR2020:12:15:00,54.5,13.98,49.8,51.0,51.2,52.0,50.2,37,39,36,0.480,25.7,26.7,25.0,12.32,13.3,215,15,20.3,0.00400,0.00524,40.7,40.6,21,726,.,.,9.35,0.00,0.00
15min,AgWx,beryljct,423,09MAR2020:12:30:00,54.4,13.96,50.8,51.6,51.0,52.7,49.3,38,40,36,0.474,26.2,27.7,25.2,9.6,11.8,219,12,18.6,0.00362,0.00475,40.9,40.6,21,636,.,.,9.35,0.00,0.00
15min,AgWx,beryljct,423,09MAR2020:12:45:00,54.3,13.97,50.8,50.8,50.7,51.5,50.0,37,39,36,0.465,25.7,26.5,24.9,10.02,9.6,210,28,15.3,0.00259,0.00354,41.2,40.6,21,359,.,.,9.35,0.00,0.00
15min,AgWx,beryljct,423,09MAR2020:13:00:00,54.0,13.96,51.2,52.3,51.1,52.6,50.3,37,38,36,0.482,25.8,26.9,25.0,7.059,11.0,187,21,15.6,0.00357,0.00467,41.4,40.6,20,630,.,.,9.34,0.00,0.00
15min,AgWx,beryljct,423,09MAR2020:13:15:00,55.4,13.93,52.3,53.1,52.8,53.9,52.0,36,37,34,0.472,26.3,27.1,25.3,15.96,11.5,184,21,17.6,0.00484,0.00608,41.7,40.6,21,910,.,.,9.35,0.00,0.00
15min,AgWx,beryljct,423,09MAR2020:13:30:00,56.7,14.02,52.3,54.0,53.3,54.7,52.2,34,36,31,0.448,25.8,26.7,24.4,13.88,11.8,190,19,19.3,0.00417,0.00545,41.9,40.6,21,740,.,.,9.35,0.00,0.00
15min,AgWx,beryljct,423,09MAR2020:13:45:00,57.4,13.87,53.8,53.9,53.4,54.2,52.4,33,35,31,0.479,25.3,26.3,24.1,12.78,13.4,211,21,20.1,0.00428,0.00566,42.2,40.7,21,753,.,.,9.34,0.00,0.00
15min,AgWx,beryljct,423,09MAR2020:14:00:00,57.6,13.89,51.8,52.7,53.6,54.4,52.7,32,34,31,0.433,24.7,26.4,23.6,15.94,14.5,217,13,21.5,0.00388,0.00532,42.4,40.7,21,629,.,.,9.34,0.00,0.00
15min,AgWx,beryljct,423,09MAR2020:14:15:00,57.3,13.88,53.6,54.1,53.3,54.9,52.1,32,33,30,0.421,24.1,25.0,22.6,13.11,12.6,203,14,18.6,0.00368,0.00500,42.7,40.7,21,603,.,.,9.34,0.00,0.00
15min,AgWx,beryljct,423,09MAR2020:14:30:00,57.4,13.88,51.6,52.5,53.5,54.6,52.5,30,31,29,0.400,22.8,24.5,21.4,8.46,14.8,224,14,19.7,0.00369,0.00518,43.0,40.8,21,570,.,.,9.34,0.00,0.00
15min,AgWx,beryljct,423,09MAR2020:14:45:00,56.6,13.93,52.3,52.2,52.0,52.5,51.6,32,33,30,0.416,22.9,24.0,21.4,12.8,12.1,213,20,20.1,0.00268,0.00389,43.3,40.8,21,334,.,.,9.34,0.00,0.00
15min,AgWx,beryljct,423,09MAR2020:15:00:00,55.8,13.95,51.8,52.0,52.4,53.0,51.8,31,33,31,0.424,23.0,24.1,22.6,10.48,10.0,191,27,13.8,0.00263,0.00372,43.5,40.8,21,357,.,.,9.34,0.00,0.00
15min,AgWx,beryljct,423,09MAR2020:15:15:00,55.2,13.99,52.0,51.3,51.7,52.4,51.2,33,34,32,0.441,23.6,24.2,23.1,7.651,9.5,203,22,16.2,0.00219,0.00319,43.7,40.9,20,257,.,.,9.34,0.00,0.00
15min,AgWx,beryljct,423,09MAR2020:15:30:00,54.8,14.01,54.4,52.7,51.8,52.7,51.2,34,35,33,0.454,24.2,25.5,23.4,9.71,8.1,193,24,14.2,0.00229,0.00319,43.9,40.9,20,353,.,.,9.35,0.00,0.00
15min,AgWx,beryljct,423,09MAR2020:15:45:00,54.9,13.92,51.7,51.8,51.9,53.2,51.4,34,36,32,0.466,24.7,25.9,23.2,10.15,8.0,205,18,11.6,0.00212,0.00299,44.1,41.0,21,323,.,.,9.34,0.00,0.00
15min,AgWx,beryljct,423,09MAR2020:16:00:00,54.9,13.93,51.9,51.9,51.8,52.4,51.3,36,37,35,0.461,25.6,26.1,25.1,8.83,7.4,212,28,11.9,0.00191,0.00272,44.2,41.1,20,306,.,.,9.34,0.00,0.00
15min,AgWx,beryljct,423,09MAR2020:16:15:00,54.7,13.97,51.5,52.5,51.9,52.5,51.4,35,36,32,0.434,25.0,26.1,23.3,8.83,7.9,222,22,12.5,0.00188,0.00273,44.3,41.1,20,290,.,.,9.34,0.00,0.00
15min,AgWx,beryljct,423,09MAR2020:16:30:00,54.6,13.96,52.1,51.8,52.0,52.5,51.5,33,35,32,0.446,24.0,25.4,22.4,5.722,9.3,190,20,19.0,0.00195,0.00292,44.4,41.2,20,277,.,.,9.34,0.00,0.00
15min,AgWx,beryljct,423,09MAR2020:16:45:00,54.7,13.92,52.2,52.0,52.3,52.9,51.9,34,35,34,0.448,24.9,25.5,24.4,10.63,9.2,186,11,14.6,0.00195,0.00291,44.5,41.3,20,280,.,.,9.35,0.00,0.00
15min,AgWx,beryljct,423,09MAR2020:17:00:00,54.8,13.48,51.2,51.4,52.2,52.8,51.4,35,36,34,0.458,25.3,26.2,24.6,7.804,9.1,184,16,13.6,0.00183,0.00277,44.6,41.3,21,254,.,.,9.35,0.00,0.00
15min,AgWx,beryljct,423,09MAR2020:17:15:00,53.9,13.29,51.0,50.9,51.0,51.4,50.8,36,37,35,0.455,24.8,25.3,24.0,9.36,9.2,201,9.4,12.7,0.00109,0.00195,44.7,41.4,21,102,.,.,9.35,0.00,0.00
15min,AgWx,beryljct,423,09MAR2020:17:30:00,52.9,13.25,50.7,50.6,50.7,50.9,50.6,37,38,36,0.461,25.2,25.8,24.6,10.37,9.7,201,7.7,13.6,0.00101,0.00188,44.8,41.5,20,78,.,.,9.35,0.00,0.00
15min,AgWx,beryljct,423,09MAR2020:17:45:00,52.1,13.19,49.9,50.0,50.3,50.6,50.0,38,39,37,0.474,25.5,25.8,25.1,7.015,10.1,213,9.8,15.0,0.00060,0.00073,44.8,41.5,20,63,.,.,9.35,0.00,0.00
15min,AgWx,beryljct,423,09MAR2020:18:00:00,51.4,13.14,49.4,49.4,49.8,50.1,49.4,39,39,38,0.468,25.6,25.9,25.4,9.1,10.0,224,7.7,13.3,0.00055,0.00067,44.9,41.6,20,38,.,.,9.35,0.00,0.00
15min,AgWx,beryljct,423,09MAR2020:18:15:00,50.7,13.1,48.7,48.7,49.0,49.4,48.6,40,41,39,0.476,25.8,26.1,25.5,5.261,7.9,225,8.8,11.4,0.00043,0.00055,44.9,41.7,20,21,.,.,9.35,0.00,0.00
15min,AgWx,beryljct,423,09MAR2020:18:30:00,49.9,13.06,47.5,47.5,48.2,48.7,47.5,41,42,41,0.472,25.7,26.0,25.5,4.231,5.7,240,16,8.2,0.00030,0.00041,44.9,41.7,20,9,.,.,9.35,0.00,0.00
15min,AgWx,beryljct,423,09MAR2020:18:45:00,49.0,13.04,46.6,46.7,47.0,47.6,46.6,43,44,42,0.477,25.9,26.1,25.8,3.595,4.3,264,4.3,5.6,0.00019,0.00027,44.8,41.7,21,3,.,.,9.35,0.00,0.00
15min,AgWx,beryljct,423,09MAR2020:19:00:00,47.8,13.03,43.0,45.7,46.3,46.9,45.7,45,46,44,0.474,26.0,26.3,25.6,1.82,3.3,252,7.8,4.4,0.00011,0.00017,44.8,41.8,21,0,.,.,9.36,0.00,0.00
15min,AgWx,beryljct,423,09MAR2020:19:15:00,46.5,13.02,42.0,41.8,43.3,45.5,41.7,50,53,45,0.478,25.7,26.1,25.2,2.455,2.7,233,14,3.4,0.00004,0.00007,44.8,41.9,20,0,.,.,9.36,0.00,0.00
15min,AgWx,beryljct,423,09MAR2020:19:30:00,45.4,13,43.6,43.5,42.6,43.5,41.6,53,55,52,0.496,26.6,27.0,26.1,3.946,3.2,256,8.1,4.9,0.00006,0.00010,44.7,41.9,20,0,.,.,9.36,0.00,0.00
15min,AgWx,beryljct,423,09MAR2020:19:45:00,44.9,13,44.8,44.1,43.7,44.1,43.2,52,52,51,0.506,27.1,27.4,26.8,4.472,3.9,266,7.6,5.4,0.00011,0.00016,44.6,42.0,20,0,.,.,9.36,0.00,0.00
15min,AgWx,beryljct,423,09MAR2020:20:00:00,45.1,12.98,46.7,46.7,46.0,46.8,44.1,49,51,47,0.513,27.7,27.9,27.4,4.867,5.3,240,5.1,8.0,0.00020,0.00028,44.5,42.0,20,0,.,.,9.36,0.00,0.00
15min,AgWx,beryljct,423,09MAR2020:20:15:00,45.5,12.98,45.3,45.3,45.9,46.7,45.0,49,51,47,0.518,27.8,28.0,27.6,1.885,3.4,250,6.0,5.5,0.00010,0.00016,44.4,42.0,21,0,.,.,9.36,0.00,0.00
15min,AgWx,beryljct,423,09MAR2020:20:30:00,45.3,12.97,44.7,44.7,44.1,45.3,43.1,52,55,50,0.515,27.8,28.0,27.4,0,1.3,87,56,2.0,-0.00009,-0.00011,44.3,42.1,21,0,.,.,9.36,0.00,0.00
15min,AgWx,beryljct,423,09MAR2020:20:45:00,44.9,12.97,41.9,43.8,44.7,45.1,43.8,52,53,51,0.515,28.1,28.3,27.8,1.25,0.2,346,5.3,1.3,-0.00025,-0.00038,44.2,42.1,21,0,.,.,9.36,0.00,0.00
15min,AgWx,beryljct,423,09MAR2020:21:00:00,44.2,12.95,42.3,41.6,42.6,43.6,41.4,55,57,53,0.505,27.4,27.9,26.9,2.083,2.4,137,12,3.2,-0.00000,0.00002,44.1,42.2,21,0,.,.,9.37,0.00,0.00
15min,AgWx,beryljct,423,09MAR2020:21:15:00,43.4,12.94,39.9,39.7,40.5,41.8,39.6,59,61,56,0.505,27.2,27.5,26.7,0.986,1.8,147,42,3.3,-0.00006,-0.00006,44.0,42.2,21,0,.,.,9.37,0.00,0.00
15min,AgWx,beryljct,423,09MAR2020:21:30:00,42.5,12.94,41.6,40.6,39.7,40.6,39.1,61,62,59,0.505,27.2,27.4,27.0,0.921,1.7,187,13,3.4,-0.00007,-0.00008,43.9,42.2,20,0,.,.,9.37,0.00,0.00
15min,AgWx,beryljct,423,09MAR2020:21:45:00,41.7,12.94,40.8,39.8,40.2,40.9,38.8,59,61,58,0.506,26.9,27.4,26.0,1.491,1.3,189,0.8,3.2,-0.00010,-0.00013,43.8,42.2,21,0,.,.,9.37,0.01,0.00
15min,AgWx,beryljct,423,09MAR2020:22:00:00,41.1,12.92,39.4,38.5,39.7,41.3,37.6,60,64,57,0.498,26.9,27.7,26.0,3.157,2.8,172,24,4.5,0.00000,0.00002,43.7,42.2,21,0,.,.,9.37,0.00,0.00
15min,AgWx,beryljct,423,09MAR2020:22:15:00,40.5,12.91,39.0,37.0,37.8,39.1,36.7,64,67,61,0.498,26.7,27.2,26.1,3.486,3.4,192,5.7,4.7,0.00002,0.00004,43.6,42.2,20,0,.,.,9.37,0.00,0.00
15min,AgWx,beryljct,423,09MAR2020:22:30:00,39.9,12.91,38.8,39.4,38.6,39.5,37.1,64,67,62,0.509,27.4,27.9,26.7,2.674,3.1,201,5.3,3.9,0.00000,0.00002,43.5,42.3,20,0,.,.,9.37,0.00,0.00
15min,AgWx,bigpiney,439,09MAR2020:00:00:00,23.1,12.74,19.3,18.8,18.3,19.4,17.5,85,87,84,0.303,14.6,16.1,13.4,3.464,3.9,251,36,6.2,-0.00005,-0.00006,30.3,30.9,11,0,0,0.0,5.86,0.00,0.00
15min,AgWx,bigpiney,439,09MAR2020:00:15:00,22.5,12.74,19.8,18.4,19.1,20.2,18.4,84,86,81,0.285,15.2,16.3,13.7,4.341,4.2,249,15,6.6,-0.00005,-0.00005,30.3,30.9,11,0,0,0.0,5.86,0.00,0.00
15min,AgWx,bigpiney,439,09MAR2020:00:30:00,21.9,12.73,16.8,16.6,17.9,20.6,16.3,83,85,80,0.273,13.6,16.8,11.8,0.921,2.8,251,15,5.0,-0.00007,-0.00008,30.4,31.0,11,0,0,0.0,5.86,0.00,0.00
15min,AgWx,bigpiney,439,09MAR2020:00:45:00,21.3,12.73,22.3,21.3,19.4,21.3,16.5,84,88,80,0.329,15.4,17.2,12.8,0,1.7,244,13,5.8,-0.00010,-0.00013,30.4,31.0,11,0,0,0.0,5.86,0.00,0.00
15min,AgWx,bigpiney,439,09MAR2020:01:00:00,20.8,12.72,18.3,18.0,19.6,21.7,18.0,83,86,78,0.292,15.2,17.4,13.4,0.351,1.0,272,30,3.9,-0.00013,-0.00018,30.4,30.9,11,0,0,0.0,5.86,0.00,0.00
15min,AgWx,bigpiney,439,09MAR2020:01:15:00,20.4,12.72,18.3,18.3,18.3,18.8,17.6,86,86,83,0.291,14.6,15.1,13.4,2.631,1.0,252,10,4.8,-0.00013,-0.00018,30.4,30.9,11,0,0,0.0,5.86,0.00,0.00
15min,AgWx,bigpiney,439,09MAR2020:01:30:00,19.9,12.71,20.6,19.6,17.8,19.6,16.6,86,89,82,0.319,14.3,16.5,12.4,2.148,2.7,239,10,4.2,-0.00008,-0.00009,30.4,31.0,11,0,0,0.0,5.86,0.00,0.00
15min,AgWx,bigpiney,439,09MAR2020:01:45:00,19.3,12.7,13.8,14.0,17.9,20.0,14.0,84,88,79,0.234,13.7,16.8,9.2,2.828,3.5,238,7.7,5.7,-0.00006,-0.00006,30.4,31.0,11,0,0,0.0,5.86,0.00,0.00
15min,AgWx,bigpiney,439,09MAR2020:02:00:00,18.8,12.7,16.8,16.1,15.4,16.2,13.8,86,88,82,0.274,11.9,13.1,9.3,1.578,2.3,311,27,3.8,-0.00008,-0.00009,30.4,30.9,11,0,0,0.0,5.86,0.00,0.00
15min,AgWx,bigpiney,439,09MAR2020:02:15:00,18.5,12.68,17.0,16.3,16.6,17.1,15.9,87,88,86,0.274,13.4,14.0,12.5,0.899,1.4,255,20,2.9,-0.00011,-0.00014,30.4,31.0,11,0,0,0.0,5.86,0.00,0.00
15min,AgWx,bigpiney,439,09MAR2020:02:30:00,18.2,12.69,16.8,16.7,16.8,17.6,16.3,86,88,85,0.278,13.5,14.6,12.7,3.705,2.7,210,7.0,4.7,-0.00008,-0.00009,30.4,30.9,11,0,0,0.0,5.86,0.00,0.00
15min,AgWx,bigpiney,439,09MAR2020:02:45:00,17.9,12.68,13.9,13.9,15.7,16.6,13.9,86,88,83,0.244,12.3,13.5,10.4,4.341,3.2,199,15,4.5,-0.00006,-0.00007,30.4,30.9,11,0,0,0.0,5.86,0.00,0.00
15min,AgWx,bigpiney,439,09MAR2020:03:00:00,17.6,12.67,13.0,12.9,13.2,14.0,12.3,86,88,85,0.235,9.8,10.9,8.8,3.003,4.3,220,7.1,5.7,-0.00004,-0.00004,30.4,30.9,11,0,0,0.0,5.86,0.00,0.00
15min,AgWx,bigpiney,439,09MAR2020:03:15:00,17.2,12.67,14.6,14.1,13.0,14.2,11.8,87,89,85,0.253,9.9,11.5,8.2,0,1.2,274,32,2.9,-0.00010,-0.00014,30.4,30.9,11,0,0,0.0,5.86,0.00,0.00
15min,AgWx,bigpiney,439,09MAR2020:03:30:00,17.0,12.66,13.4,15.1,14.4,15.8,13.5,88,90,86,0.260,11.6,13.2,10.0,2.521,0.3,228,9.1,2.8,-0.00015,-0.00023,30.4,30.9,11,0,0,0.0,5.86,0.00,0.00
15min,AgWx,bigpiney,439,09MAR2020:03:45:00,17.0,12.66,16.0,15.4,15.1,15.7,14.6,88,89,85,0.265,12.0,12.9,11.1,2.696,1.0,188,30,2.7,-0.00012,-0.00016,30.4,31.0,11,0,0,0.0,5.86,0.00,0.00
15min,AgWx,bigpiney,439,09MAR2020:04:00:00,17.2,12.65,15.9,15.6,15.6,15.8,15.4,87,88,87,0.268,12.4,12.8,12.1,0.022,0.9,153,59,2.8,-0.00012,-0.00017,30.4,30.9,11,0,0,0.0,5.86,0.00,0.00
15min,AgWx,bigpiney,439,09MAR2020:04:15:00,17.4,12.65,16.0,15.4,15.7,16.2,15.2,87,88,86,0.265,12.5,13.2,11.7,0,0.9,126,24,2.4,-0.00013,-0.00017,30.4,31.0,11,0,0,0.0,5.86,0.00,0.00
15min,AgWx,bigpiney,439,09MAR2020:04:30:00,17.6,12.64,16.3,16.2,15.7,16.5,15.1,87,89,86,0.272,12.6,13.6,11.8,3.332,2.2,111,22,3.9,-0.00009,-0.00011,30.4,31.0,11,0,0,0.0,5.86,0.00,0.00
15min,AgWx,bigpiney,439,09MAR2020:04:45:00,17.9,12.64,16.9,16.3,16.5,17.3,15.5,86,88,85,0.272,13.1,13.9,11.7,1.184,2.8,176,37,4.5,-0.00007,-0.00008,30.4,31.0,11,0,0,0.0,5.86,0.00,0.00
15min,AgWx,bigpiney,439,09MAR2020:05:00:00,18.2,12.63,16.2,16.5,16.8,17.2,16.3,87,87,86,0.276,13.6,14.1,12.8,1.184,0.4,5.4,43,1.5,-0.00015,-0.00023,30.4,30.9,11,0,0,0.0,5.86,0.00,0.00
15min,AgWx,bigpiney,439,09MAR2020:05:15:00,18.6,12.63,16.9,16.6,16.3,16.9,15.8,88,89,86,0.278,13.2,13.9,12.7,3.529,1.5,52,21,3.5,-0.00011,-0.00014,30.4,30.9,11,0,0,0.0,5.86,0.00,0.00
15min,AgWx,bigpiney,439,09MAR2020:05:30:00,18.9,12.63,15.7,15.3,15.8,16.6,15.3,87,87,86,0.265,12.6,13.4,12.2,1.6,1.7,359,19,3.4,-0.00010,-0.00012,30.4,30.9,11,0,0,0.0,5.86,0.00,0.00
15min,AgWx,bigpiney,439,09MAR2020:05:45:00,18.7,12.62,16.1,15.9,15.8,15.9,15.3,88,89,87,0.274,12.8,13.1,12.3,0,0.5,344,34,1.6,-0.00014,-0.00021,30.4,31.0,11,0,0,0.0,5.86,0.00,0.00
15min,AgWx,bigpiney,439,09MAR2020:06:00:00,18.2,12.61,16.1,15.2,15.7,16.1,14.6,89,89,86,0.269,12.9,13.6,11.2,4.077,2.0,242,25,6.2,-0.00009,-0.00012,30.4,31.0,11,0,0,0.0,5.86,0.00,0.00
15min,AgWx,bigpiney,439,09MAR2020:06:15:00,17.8,12.61,15.3,14.8,15.1,15.6,14.5,90,91,89,0.266,12.6,13.3,11.9,3.595,3.7,214,8.4,5.0,-0.00006,-0.00007,30.4,30.9,11,0,0,0.0,5.86,0.00,0.00
15min,AgWx,bigpiney,439,09MAR2020:06:30:00,17.6,12.6,17.6,16.6,15.0,16.6,14.2,90,91,89,0.291,12.5,14.4,11.5,4.253,4.6,217,8.6,5.4,-0.00005,-0.00005,30.4,31.0,11,0,0,0.0,5.86,0.00,0.00
15min,AgWx,bigpiney,439,09MAR2020:06:45:00,17.9,12.6,18.5,18.0,17.6,18.1,16.6,90,91,89,0.302,15.0,15.4,14.4,3.354,4.3,200,7.6,5.6,-0.00005,-0.00006,30.4,31.0,11,3,0,0.0,5.86,0.00,0.00
15min,AgWx,bigpiney,439,09MAR2020:07:00:00,18.3,12.72,17.4,17.2,17.7,18.1,17.2,88,89,88,0.289,14.9,15.3,14.2,2.653,3.0,211,8.7,4.2,-0.00010,-0.00008,30.4,31.0,11,10,0,0.0,5.86,0.00,0.00
15min,AgWx,bigpiney,439,09MAR2020:07:15:00,18.7,15.01,17.0,16.6,16.5,17.3,16.0,88,90,87,0.287,13.6,14.8,13.0,0.899,2.0,239,29,3.6,-0.00000,0.00001,30.4,31.0,11,87,0,0.0,5.86,0.00,0.00
15min,AgWx,bigpiney,439,09MAR2020:07:30:00,19.3,13.31,17.0,17.1,17.4,18.1,16.6,89,90,88,0.290,14.7,15.7,14.0,3.486,1.6,117,55,3.8,-0.00000,0.00001,30.4,30.9,11,49,0,0.0,5.86,0.00,0.00
15min,AgWx,bigpiney,439,09MAR2020:07:45:00,19.8,13.23,18.7,18.4,17.7,18.4,16.9,90,91,89,0.315,15.3,16.1,14.2,2.631,2.6,115,15,4.5,0.00011,0.00013,30.5,30.9,11,53,0,0.0,5.86,0.00,0.00
15min,AgWx,bigpiney,439,09MAR2020:08:00:00,20.5,13.19,18.5,18.0,18.3,18.5,18.0,91,91,90,0.307,16.0,16.3,15.6,1.206,1.8,96,13,2.6,0.00019,0.00021,30.5,31.0,11,95,0,0.0,5.86,0.00,0.00
15min,AgWx,bigpiney,439,09MAR2020:08:15:00,21.3,13.33,18.7,18.2,18.1,18.3,18.0,90,91,90,0.312,15.8,16.0,15.6,1.754,1.2,121,18,2.3,0.00029,0.00032,30.5,30.9,11,139,0,0.0,5.86,0.00,0.00
15min,AgWx,bigpiney,439,09MAR2020:08:30:00,22.2,14.98,18.9,18.6,18.5,18.7,18.2,91,91,90,0.315,16.2,16.4,15.9,2.762,1.4,121,14,2.8,0.00042,0.00046,30.5,31.0,11,190,0,0.0,5.86,0.00,0.00
15min,AgWx,bigpiney,439,09MAR2020:08:45:00,23.4,14.94,19.6,19.4,19.0,19.5,18.6,90,91,90,0.325,16.6,17.0,16.2,2.674,1.4,117,8.7,3.5,0.00068,0.00074,30.5,31.0,11,301,0,0.0,5.86,0.00,0.00
15min,AgWx,bigpiney,439,09MAR2020:09:00:00,24.9,14.92,19.4,19.4,19.4,19.6,19.3,90,90,89,0.324,16.9,17.1,16.6,2.631,1.9,86,22,3.1,0.00076,0.00083,30.5,31.0,11,319,0,0.0,5.86,0.00,0.00
15min,AgWx,bigpiney,439,09MAR2020:09:15:00,26.6,14.9,20.1,20.1,20.0,20.4,19.3,89,90,88,0.329,17.3,17.7,16.7,1.425,1.6,82,22,2.8,0.00113,0.00121,30.5,31.0,11,439,1,0.0,5.86,0.00,0.00
15min,AgWx,bigpiney,439,09MAR2020:09:30:00,28.5,14.84,20.4,20.7,20.2,20.7,19.9,88,89,88,0.335,17.3,17.6,16.9,2.148,1.6,44,15,2.7,0.00132,0.00142,30.5,31.0,11,502,1,0.0,5.87,0.00,0.01
15min,AgWx,bigpiney,439,09MAR2020:09:45:00,30.6,14.75,21.4,21.0,20.8,21.1,20.6,88,88,87,0.337,17.7,18.1,17.4,0.153,1.4,19,24,2.3,0.00148,0.00159,30.5,31.0,11,534,1,0.0,5.88,0.00,0.01